Regional Weather Roundup
Issued by NWS

Home | Current Version | Previous Version | Graphics & Text | Print | Product List | Glossary On
Versions: 1 2 3 4 5 6 7 8 9 10 11 12 13 14 15 16 17 18 19 20 21 22 23 24 25 26 27 28 29 30 31 32 33 34 35 36 37 38 39 40 41 42 43 44 45 46 47 48 49 50
000
ASUS43 KLOT 232003
RWRIL

ILLINOIS REGIONAL WEATHER ROUNDUP
NATIONAL WEATHER SERVICE CHICAGO/ROMEOVILLE IL
300 PM CDT MON APR 23 2018

NOTE: "FAIR" INDICATES FEW OR NO CLOUDS BELOW 12,000 FEET WITH NO
SIGNIFICANT WEATHER AND/OR OBSTRUCTIONS TO VISIBILITY.

* THESE STATIONS ARE NOT UNDER NWS QUALITY CONTROL. THEY ALSO MAY NOT
  REPORT WEATHER SUCH AS PRECIPITATION OR FOG.

ILZ001-002-007-009-015-016-024-232100-
NORTHWEST ILLINOIS

CITY           SKY/WX    TMP DP  RH WIND       PRES   REMARKS
MOLINE         FAIR      74  33  22 NE15      30.06F
STERLING*      FAIR      72  35  25 E14       30.08
SAVANNA*       FAIR      70  28  20 NE14G20   30.10F
$$

ILZ003-004-008-010-011-017-018-232100-
NORTH CENTRAL ILLINOIS

CITY           SKY/WX    TMP DP  RH WIND       PRES   REMARKS
ROCKFORD       PTSUNNY   70  30  22 NE15      30.12F
FREEPORT*      FAIR      67  30  25 NE12      30.13F
ROCHELLE*      FAIR      70  33  25 E15       30.10S
DE KALB*       FAIR      69  31  24 E18G25    30.11S
PERU*          FAIR      72  32  23 E14G22    30.07S
$$

ILZ005-006-012>014-019>023-232100-
NORTHEAST ILLINOIS

CITY           SKY/WX    TMP DP  RH WIND       PRES   REMARKS
CHICAGO-OHARE  PTSUNNY   61  30  31 NE17      30.11F
CHICAGO-MIDWAY PTSUNNY   62  33  33 NE13      30.11F
AURORA         FAIR      68  28  22 NE18G26   30.09F
LANSING*       PTSUNNY   50  38  64 N9        30.12S
JOLIET*        CLOUDY    66  34  30 NE15      30.09S
WAUKEGAN       FAIR      60  27  28 NE12      30.13F
DUPAGE AIRPORT FAIR      65  28  24 NE17G26   30.10F
KANKAKEE*      PTSUNNY   69  43  39 SE20      30.07S
WHEELING       FAIR      61  27  27 NE14G22   30.14F
MORRIS*        PTSUNNY   67  33  27 NE8G16    30.07S
ROMEOVILLE*    FAIR      64  34  32 NE17G23   30.09S
NORTHERLY ISL    N/A     50  31  48 MISG        N/A
$$

LMZ740>746-232100-
SOUTHERN LAKE MICHIGAN

STATION/POSITION SKY/WX   TEMP    WIND        PRES    VSBY  WAVE
                          AIR SEA DIR/SP/G                  HT/PER
                          (F)     (DEG/KT/KT) (MB)    (MI)  (FT/S)
HARRISON CRIB              43     350/ 15/ 16   N/A
BURNHAM HARBOR             50     360/ 14/ 16   N/A
CALUMET HARBOR             45     330/ 18/ 22 1019.6F
BURNS HARBOR               42     290/  4/  5 1020.7S
MICHIGAN CITY              44     260/  3/  3   N/A
ST. JOSEPH                 45 42   20/  8/ 12 1019.9F         1/ 3
$$

ILZ025>027-034>036-040-047-049-050-058-095>099-232100-
WEST-CENTRAL ILLINOIS

CITY           SKY/WX    TMP DP  RH WIND       PRES   REMARKS
QUINCY         MOSUNNY   71  37  28 NE18G30   30.01F
GALESBURG*     CLOUDY    73  34  24 NE21G26   30.07S
MACOMB*        CLOUDY    70  34  26 N20G25    30.06F
JACKSONVILLE*  CLOUDY    66  42  42 NE12      30.01S
PITTSFIELD*    CLOUDY    68  42  38 NE12G21   30.01F
$$

ILZ028>032-037-038-041>044-048-051>054-059>061-232100-
CENTRAL ILLINOIS

CITY           SKY/WX    TMP DP  RH WIND       PRES   REMARKS
PONTIAC        CLOUDY    70  38  32 E12G17    30.06S
BLOOMINGTON    CLOUDY    70  47  43 E16       30.04F
DECATUR        CLOUDY    58  55  90 E15       30.03S
PEORIA         PTSUNNY   69  37  30 NE13      30.05S
LACON*         CLOUDY    67  34  29 E10G23    30.05S
LINCOLN*       FAIR      66  50  55 E12G18    30.03F
SPRINGFIELD    PTSUNNY   68  46  45 NE17G23   30.01F
TAYLORVILLE    CLOUDY    57  54  88 E12       30.01F
$$

ILZ033-039-045-046-055>057-062-063-232100-
EAST-CENTRAL ILLINOIS

CITY           SKY/WX    TMP DP  RH WIND       PRES   REMARKS
CHAMPAIGN      LGT RAIN  57  56  96 E14       30.04F FOG
DANVILLE*      RAIN      57  56  97 E12       30.04S
RANTOUL*       CLOUDY    64  54  69 E13       30.05F
MATTOON        LGT RAIN  56  54  93 E10       30.01F
PARIS*         DRIZZLE   56  55  96 E12       30.05S
$$

ILZ079-100>102-232100-
SOUTHWEST ILLINOIS

CITY           SKY/WX    TMP DP  RH WIND       PRES   REMARKS
ALTON          CLOUDY    57  55  94 NE14      29.99S
CAHOKIA*       CLOUDY    59  53  80 N12       29.97S
SPARTA*        CLOUDY    60  58  92 NE10      29.95S
$$

ILZ064>066-069>071-074>076-080>082-084>086-088>090-092>094-232100-
SOUTH-CENTRAL ILLINOIS

CITY           SKY/WX    TMP DP  RH WIND       PRES   REMARKS
CARBONDALE     CLOUDY    62  57  83 NE13      29.90F
CAIRO*         PTSUNNY   64  59  83 SW5       29.88S THUNDER
EFFINGHAM*     CLOUDY    58  56  92 NE9       30.01S
MARION         PTSUNNY   63  61  94 NE12      29.91F
MT. VERNON     CLOUDY    62  56  80 NE14      29.94F
CENTRALIA*     CLOUDY    63  57  81 NE12      29.95F
SALEM*         CLOUDY    62  55  78 NE12      29.96F
METROPOLIS*    TSTM      56  55  94 CALM      29.90S
$$

ILZ067-068-072-073-078-083-087-091-232100-
SOUTHEAST ILLINOIS

CITY           SKY/WX    TMP DP  RH WIND       PRES   REMARKS
LAWRENCEVILLE  CLOUDY    60  55  83 MISG      29.99F
FLORA*         CLOUDY    61  55  82 NE9       29.97F
FAIRFIELD*     CLOUDY    60  56  86 NE7       29.94F
HARRISBURG*    CLOUDY    65  60  86 E10       29.91F
ROBINSON*      CLOUDY    57  55  94 E14       30.01F
CARMI*         CLOUDY    65  58  78 E14       29.92F
$$

ABBREVIATIONS USED IN REMARKS
   TC - TEMPERATURE IN CELSIUS
  WCI - WIND CHILL INDEX
   HX - HEAT INDEX
  VSB - VISIBILITY
$$





USA.gov is the U.S. government's official web portal to all federal, state and local government web resources and services.